Location: Archemont
(49.1579°N, 1.7598°E)
Time: 09:54:34
(UTC+00:00)

Altair - Pass Details

Date: 20 April 2024
Orbit: 1501 x 1682 km, 47.2° (Epoch: 17 May)

Event Time Altitude Azimuth Distance (km) Brightness Sun altitude
Rises 00:02:38 0° 285° (WNW) 4,845 10.3 -29.2°
Reaches altitude 10° 00:05:52 10° 282° (WNW) 3,833 9.6 -29.1°
Maximum altitude 00:15:15 57° 208° (SSW) 1,798 7.4 -29.0°
Enters shadow 00:15:59 56° 191° (S) 1,813 7.4 -29.0°
Drops below altitude 10° 00:24:17 10° 133° (SE) 3,690 - -28.8°
Sets 00:27:20 0° 129° (SE) 4,654 - -28.7°
